Home   Weather   Beaumont   Past weeks

Flag for USA Past Weather in Beaumont, Texas, USA — Yesterday and Last 2 Weeks

Now
72 °F

Mostly cloudy.


Feels Like: 71 °F
Forecast: 55 / 66 °F
Wind: 9 mph from Southwest

Location: Jefferson County Airport

Current Time: Jan 21, 2017 at 6:09:40 pm

Latest Report: Jan 21, 2017 at 5:21 pm


Visibility: 5 mi

Pressure: 29.45 "Hg

Humidity: 84%

Dew Point: 67 °F

Location of BeaumontLocation

Past Weather in Beaumont — Graph

°F

Beaumont Temperature Yesterday

Maximum temperature yesterday: 79 °F (at 12:53 pm)
Minimum temperature yesterday: 62 °F (at 1:35 am)
Average temperature yesterday: 66 °F

High & Low Weather Summary for the Past Weeks

 TemperatureHumidityPressure
High82 °F (Jan 16, 1:22 pm)97% (Jan 12, 8:53 pm)30.75 "Hg (Jan 12, 8:53 pm)
Low26 °F (Jan 7, 6:53 am)26% (Jan 8, 11:53 am)29.44 "Hg (Jan 21, 4:10 pm)
Average64 °F83%30.11 "Hg
* Reported Jan 6 4:35 pm — Jan 21 4:53 pm, Beaumont, Weather by CustomWeather, © 2017

Note: Actual official high and low records may vary slightly from our data, if they occured in-between our weather recording intervals... More about our weather records

Advertising

Beaumont Weather History for the Previous 24 Hours

Scroll right to see more
 ConditionsComfort  
Time TempWeatherWind HumidityBarometerVisibility
4:53 pm
Sat, Jan 21
73 °FScattered clouds.9 mph81%29.45 "Hg5 mi
4:10 pm75 °FHaze.14 mph74%29.44 "Hg6 mi
3:53 pm75 °FBroken clouds.15 mph74%29.44 "Hg6 mi
3:09 pm76 °FBroken clouds.14 mph74%29.45 "Hg6 mi
2:53 pm77 °FPartly sunny.14 mph71%29.46 "Hg6 mi
1:53 pm79 °FScattered clouds.10 mph65%29.47 "Hg5 mi
12:53 pm77 °FBroken clouds.13 mph69%29.53 "Hg8 mi
11:53 am75 °FPartly sunny.12 mph74%29.59 "Hg7 mi
10:53 am75 °FPartly sunny.7 mph79%29.63 "Hg6 mi
10:20 am72 °FFog.7 mph87%29.64 "Hg1 mi
9:53 am71 °FFog.3 mph90%29.65 "Hg1 mi
9:39 am71 °FFog.5 mph90%29.65 "Hg1 mi
8:53 am70 °FFog.5 mph93%29.65 "Hg1 mi
7:53 am68 °FFog.5 mph93%29.64 "Hg1 mi
7:39 am67 °FFog.5 mph93%29.65 "Hg1 mi
7:05 am66 °FLow clouds.3 mph93%29.65 "Hg7 mi
6:53 am66 °FLow clouds.5 mph93%29.65 "Hg7 mi
5:53 am64 °FOvercast.3 mph94%29.63 "Hg9 mi
5:09 am64 °FPassing clouds.6 mph90%29.62 "Hg10 mi
4:53 am63 °FPartly cloudy.6 mph90%29.61 "Hg10 mi
3:53 am64 °FMostly cloudy.3 mph90%29.64 "Hg10 mi
2:53 am64 °FMostly cloudy.6 mph90%29.65 "Hg10 mi
2:43 am64 °FPassing clouds.6 mph87%29.65 "Hg10 mi
2:33 am64 °FMostly cloudy.7 mph87%29.66 "Hg10 mi
2:17 am64 °FMostly cloudy.6 mph87%29.67 "Hg10 mi
1:53 am64 °FOvercast.8 mph90%29.66 "Hg10 mi
1:34 am64 °FLow clouds.14 mph94%29.68 "Hg10 mi
12:53 am64 °FOvercast.8 mph94%29.67 "Hg9 mi
11:53 pm
Fri, Jan 20
65 °FOvercast.3 mph91%29.67 "Hg10 mi
10:53 pm64 °FPassing clouds.9 mph90%29.67 "Hg10 mi
10:32 pm63 °FOvercast.6 mph93%29.68 "Hg10 mi
9:53 pm63 °FFog.5 mph93%29.70 "Hg3 mi
9:06 pm64 °FOvercast.9 mph90%29.72 "Hg10 mi
8:53 pm64 °FThundershowers. Mostly cloudy.8 mph90%29.72 "Hg10 mi
8:29 pm64 °FThundershowers. Overcast.16 mph87%29.75 "Hg8 mi
8:14 pm69 °FThunderstorms. Passing clouds.14 mph93%29.71 "Hg7 mi
7:53 pm68 °FThundershowers. Passing clouds.14 mph93%29.70 "Hg7 mi
7:36 pm68 °FThunderstorms. Fog.12 mph93%29.71 "Hg5 mi
7:16 pm68 °FThunderstorms. Fog.14 mph93%29.68 "Hg6 mi
7:07 pm68 °FPassing clouds.12 mph90%29.70 "Hg7 mi
6:53 pm68 °FClear.10 mph90%29.67 "Hg9 mi
Weather by CustomWeather, © 2017

See weather overviewHow to use our weather pages